Regional Weather Roundup
Issued by NWS

Home | Current Version | Previous Version | Graphics & Text | Print | Product List | Glossary On
Versions: 1 2 3 4 5 6 7 8 9 10 11 12 13 14 15 16 17 18 19 20 21 22 23 24 25 26 27 28 29 30 31 32 33 34 35 36 37 38 39 40 41 42 43 44 45 46 47 48 49 50
000
ASUS45 KBOU 020210
RWRCO

WEATHER ROUNDUP FOR COLORADO
NATIONAL WEATHER SERVICE DENVER/BOULDER CO
800 PM MDT WED JUL 01 2015

NOTE: "FAIR" INDICATES FEW OR NO CLOUDS BELOW 12000 FEET WITH NO
SIGNIFICANT WEATHER AND/OR OBSTRUCTIONS TO VISIBILITY.

COZ001>005-013-030-031-020300-
...NORTHWEST COLORADO...

CITY           SKY/WX    TMP DP  RH WIND       PRES   REMARKS
CRAIG          MOCLDY    76  49  38 E9        30.15R
HAYDEN         MOCLDY    75  46  35 E18       30.18F
MEEKER         MOCLDY    79  55  43 NE6       30.15R
MOUNT WERNER   NOT AVBL
STEAMBOAT SPGS MOCLDY    70  46  42 N21G32    30.23R
WALDEN         CLOUDY    61  45  55 NW8       30.36R
$$

COZ006>008-011-020300-
...WEST CENTRAL VALLEYS...

CITY           SKY/WX    TMP DP  RH WIND       PRES   REMARKS
GRAND JUNCTION MOCLDY    87  53  31 W6        29.96F
MONTROSE       PTCLDY    89  48  24 W7        30.06S
EAGLE          MOCLDY    79  55  44 W10       30.19R
RIFLE          MOCLDY    88  48  25 N10       30.04R
DELTA          PTCLDY    94  46  19 E9        30.01R
NUCLA          MOCLDY    82  54  36 E8        30.10S
$$

COZ017>023-064>068-020300-
...SOUTHWEST COLORADO...

CITY           SKY/WX    TMP DP  RH WIND       PRES   REMARKS
DURANGO        CLOUDY    77  45  32 E10       30.16R
CORTEZ         CLEAR     87  52  29 NE6       30.05R
PAGOSA SPRINGS CLOUDY    68  49  50 CALM      30.28R
TELLURIDE      MOCLDY    74  39  28 CALM      30.38S
WOLF CREEK PAS NOT AVBL
$$

COZ009-010-012-014-032>034-037-058>063-020300-
...CENTRAL COLORADO...

CITY           SKY/WX    TMP DP  RH WIND       PRES   REMARKS
ASPEN          MOCLDY    76  48  37 VRB3      30.25S
BUENA VISTA    MOCLDY    65  54  68 CALM      30.35S
COPPER MTN     MOCLDY    59  41  51 S6        30.66S
BERTHOUD PASS  FAIR      46  37  71 CALM      30.71S
COTTONWOOD PAS NOT AVBL
GUNNISON       MOCLDY    79  43  27 N6        30.26S
KREMMLING      PTCLDY    77  41  27 CALM      30.28R
LEADVILLE      LGT RAIN  54  52  93 E3        30.48R
SALIDA         MOCLDY    72  50  45 S6        30.37F
SUNLIGHT       MOCLDY    64  46  52 NE3       30.56R
WILKERSON PASS MOCLDY    50  45  81 S9G18     30.64S
$$

COZ069>075-020300-
...SAN LUIS VALLEY/SANGRE DE CRISTO MOUNTAINS...

CITY           SKY/WX    TMP DP  RH WIND       PRES   REMARKS
ALAMOSA        CLOUDY    63  53  70 SE18      30.30F
LA VETA PASS   RAIN      50  46  87 MISG      30.55R
SAGUACHE       CLOUDY    61  54  77 E21G26    30.35R
$$

COZ035-036-038>040-020300-
...NORTHERN COLORADO FRONT RANGE...

CITY           SKY/WX    TMP DP  RH WIND       PRES   REMARKS
DENVER INTL AP MOCLDY    67  59  75 SE9       30.17S
DMNS CITY PARK   N/A     74  56  53 SE5G16    30.17S
AURORA         MOCLDY    69  58  66 SE8       30.21S
FRONT RANGE AP MOCLDY    68  63  83 S6        30.19F
ERIE MUNI ARPT PTCLDY    74  57  54 E5        30.15S
BOULDER MUN AP PTCLDY    73  54  49 CALM      30.17S
CENTENNIAL     MOCLDY    69  57  65 SE9       30.20F
BROOMFIELD     MOCLDY    75  57  53 SE9       30.19S
FORT COLLINS   CLOUDY    73  57  56 CALM      30.15S
LONGMONT       CLOUDY    77  56  48 CALM      30.17S
$$

COZ041-046-047-076>085-087-088-020300-
...PIKES PEAK/PALMER DIVIDE AND SOUTHERN FOOTHILLS...

CITY           SKY/WX    TMP DP  RH WIND       PRES   REMARKS
COLO. SPRINGS  CLOUDY    67  59  75 N10       30.25S
A. F. ACADEMY  CLOUDY    64  62  93 W6        30.26S
ELLICOTT       LGT RAIN N/A N/A N/A E7        30.24R
FALCON         CLOUDY    65  57  75 N7        30.30S
FORT CARSON    CLOUDY    64  62  92 N9        30.22R
LIMON          LGT RAIN  62  59  90 E12       30.20F
MONUMENT HILL  CLOUDY    63  55  77 E5        30.30F
TRINIDAD       CLOUDY    75  52  44 N23G33    30.15R THUNDER
$$

COZ042>045-048>051-090-091-020300-
...NORTHEAST COLORADO...

CITY           SKY/WX    TMP DP  RH WIND       PRES   REMARKS
GREELEY ARPT   CLOUDY    73  59  60 S5        30.13S
AKRON          CLOUDY    71  58  63 SW15      30.08F
BURLINGTON     LGT RAIN  84  52  33 NE3       30.06R
WRAY           CLOUDY    82  55  38 SE6       30.00R
STERLING       CLOUDY    79  55  44 NW14        N/A
HOLYOKE        CLOUDY    81  59  47 E7        30.00S
FORT MORGAN    CLOUDY    69  57  65 S6        30.10R
$$

COZ086-089-092>099-020300-
...SOUTHEAST COLORADO...

CITY           SKY/WX    TMP DP  RH WIND       PRES   REMARKS
PUEBLO         LGT RAIN  70  63  78 E7        30.15F
LA JUNTA       LGT RAIN  71  62  73 NW33G47   30.09R
LAMAR          CLOUDY    86  56  35 E7        29.96R
SPRINGFIELD      N/A     85  50  29 E9        30.01R
$$



USA.gov is the U.S. government's official web portal to all federal, state and local government web resources and services.